Year,Month,Day,Hour,Minute,Value (Times are PST for windspeed in km/hr)
2017,05,24,00,00,18.00
2017,05,24,00,01,17.30
2017,05,24,00,02,18.90
2017,05,24,00,03,15.90
2017,05,24,00,04,15.20
2017,05,24,00,05,13.50
2017,05,24,00,06,14.10
2017,05,24,00,07,12.20
2017,05,24,00,08,15.20
2017,05,24,00,09,12.10
2017,05,24,00,10,8.50
2017,05,24,00,11,14.90
2017,05,24,00,12,11.10
2017,05,24,00,13,9.00
2017,05,24,00,14,16.70
2017,05,24,00,15,14.50
2017,05,24,00,16,12.60
2017,05,24,00,17,11.00
2017,05,24,00,18,10.50
2017,05,24,00,19,9.30
2017,05,24,00,20,10.30
2017,05,24,00,21,10.10
2017,05,24,00,22,8.30
2017,05,24,00,23,5.70
2017,05,24,00,24,12.60
2017,05,24,00,25,10.90
2017,05,24,00,26,12.00
2017,05,24,00,27,10.50
2017,05,24,00,28,7.70
2017,05,24,00,29,8.80
2017,05,24,00,30,13.50
2017,05,24,00,31,12.00
2017,05,24,00,32,8.40
2017,05,24,00,33,6.10
2017,05,24,00,34,7.90
2017,05,24,00,35,8.10
2017,05,24,00,36,8.40
2017,05,24,00,37,9.00
2017,05,24,00,38,7.00
2017,05,24,00,39,6.10
2017,05,24,00,40,8.50
2017,05,24,00,41,9.80
2017,05,24,00,42,5.60
2017,05,24,00,43,7.40
2017,05,24,00,44,8.00
2017,05,24,00,45,8.60
2017,05,24,00,46,9.00
2017,05,24,00,47,6.50
2017,05,24,00,48,8.40
2017,05,24,00,49,14.00
2017,05,24,00,50,8.40
2017,05,24,00,51,12.80
2017,05,24,00,52,11.10
2017,05,24,00,53,8.80
2017,05,24,00,54,8.40
2017,05,24,00,55,8.80
2017,05,24,00,56,8.00
2017,05,24,00,57,9.20
2017,05,24,00,58,10.10
2017,05,24,00,59,10.70
2017,05,24,01,00,11.00
2017,05,24,01,01,15.10
2017,05,24,01,02,10.70
2017,05,24,01,03,10.80
2017,05,24,01,04,10.10
2017,05,24,01,05,11.10
2017,05,24,01,06,11.00
2017,05,24,01,07,10.60
2017,05,24,01,08,10.30
2017,05,24,01,09,9.70
2017,05,24,01,10,7.50
2017,05,24,01,11,12.30
2017,05,24,01,12,10.00
2017,05,24,01,13,11.80
2017,05,24,01,14,11.30
2017,05,24,01,15,12.30
2017,05,24,01,16,8.40
2017,05,24,01,17,7.20
2017,05,24,01,18,8.10
2017,05,24,01,19,11.20
2017,05,24,01,20,9.00
2017,05,24,01,21,10.80
2017,05,24,01,22,11.50
2017,05,24,01,23,12.80
2017,05,24,01,24,9.70
2017,05,24,01,25,9.80
2017,05,24,01,26,9.30
2017,05,24,01,27,10.60
2017,05,24,01,28,9.90
2017,05,24,01,29,7.50
2017,05,24,01,30,8.10
2017,05,24,01,31,11.70
2017,05,24,01,32,11.40
2017,05,24,01,33,14.00
2017,05,24,01,34,11.70
2017,05,24,01,35,8.70
2017,05,24,01,36,10.20
2017,05,24,01,37,9.40
2017,05,24,01,38,9.90
2017,05,24,01,39,9.50
2017,05,24,01,40,5.90
2017,05,24,01,41,13.90
2017,05,24,01,42,9.20
2017,05,24,01,43,7.40
2017,05,24,01,44,7.40
2017,05,24,01,45,7.90
2017,05,24,01,46,8.90
2017,05,24,01,47,8.10
2017,05,24,01,48,6.50
2017,05,24,01,49,8.60
2017,05,24,01,50,10.30
2017,05,24,01,51,7.50
2017,05,24,01,52,7.70
2017,05,24,01,53,7.50
2017,05,24,01,54,6.70
2017,05,24,01,55,6.90
2017,05,24,01,56,6.70
2017,05,24,01,57,7.30
2017,05,24,01,58,5.10
2017,05,24,01,59,7.10
2017,05,24,02,00,9.70
2017,05,24,02,01,7.30
2017,05,24,02,02,8.40
2017,05,24,02,03,7.90
2017,05,24,02,04,7.90
2017,05,24,02,05,9.30
2017,05,24,02,06,7.80
2017,05,24,02,07,8.00
2017,05,24,02,08,9.40
2017,05,24,02,09,8.50
2017,05,24,02,10,8.00
2017,05,24,02,11,7.40
2017,05,24,02,12,8.30
2017,05,24,02,13,8.80
2017,05,24,02,14,9.30
2017,05,24,02,15,9.40
2017,05,24,02,16,9.20
2017,05,24,02,17,9.30
2017,05,24,02,18,11.30
2017,05,24,02,19,9.70
2017,05,24,02,20,8.90
2017,05,24,02,21,7.80
2017,05,24,02,22,8.40
2017,05,24,02,23,10.40
2017,05,24,02,24,5.20
2017,05,24,02,25,8.20
2017,05,24,02,26,9.00
2017,05,24,02,27,9.70
2017,05,24,02,28,8.10
2017,05,24,02,29,8.00
2017,05,24,02,30,9.20
2017,05,24,02,31,7.80
2017,05,24,02,32,8.70
2017,05,24,02,33,7.80
2017,05,24,02,34,13.90
2017,05,24,02,35,8.30
2017,05,24,02,36,7.00
2017,05,24,02,37,8.30
2017,05,24,02,38,6.20
2017,05,24,02,39,8.60
2017,05,24,02,40,8.70
2017,05,24,02,41,5.90
2017,05,24,02,42,7.80
2017,05,24,02,43,7.40
2017,05,24,02,44,7.30
2017,05,24,02,45,7.20
2017,05,24,02,46,7.10
2017,05,24,02,47,8.60
2017,05,24,02,48,6.20
2017,05,24,02,49,8.10
2017,05,24,02,50,7.90
2017,05,24,02,51,9.40
2017,05,24,02,52,9.70
2017,05,24,02,53,7.30
2017,05,24,02,54,9.10
2017,05,24,02,55,7.20
2017,05,24,02,56,5.10
2017,05,24,02,57,8.10
2017,05,24,02,58,7.80
2017,05,24,02,59,7.30
2017,05,24,03,00,8.80
2017,05,24,03,01,8.10
2017,05,24,03,02,8.70
2017,05,24,03,03,7.10
2017,05,24,03,04,8.90
2017,05,24,03,05,8.90
2017,05,24,03,06,5.10
2017,05,24,03,07,5.80
2017,05,24,03,08,4.70
2017,05,24,03,09,6.60
2017,05,24,03,10,6.40
2017,05,24,03,11,8.70
2017,05,24,03,12,6.70
2017,05,24,03,13,6.70
2017,05,24,03,14,7.40
2017,05,24,03,15,7.70
2017,05,24,03,16,10.20
2017,05,24,03,17,8.20
2017,05,24,03,18,8.00
2017,05,24,03,19,8.30
2017,05,24,03,20,6.70
2017,05,24,03,21,5.70
2017,05,24,03,22,7.20
2017,05,24,03,23,7.00
2017,05,24,03,24,10.20
2017,05,24,03,25,9.80
2017,05,24,03,26,8.80
2017,05,24,03,27,9.50
2017,05,24,03,28,9.10
2017,05,24,03,29,6.90
2017,05,24,03,30,8.00
2017,05,24,03,31,7.50
2017,05,24,03,32,5.90
2017,05,24,03,33,5.20
2017,05,24,03,34,5.20
2017,05,24,03,35,4.70
2017,05,24,03,36,3.40
2017,05,24,03,37,5.80
2017,05,24,03,38,7.20
2017,05,24,03,39,5.70
2017,05,24,03,40,7.10
2017,05,24,03,41,7.40
2017,05,24,03,42,6.30
2017,05,24,03,43,8.30
2017,05,24,03,44,7.30
2017,05,24,03,45,12.60
2017,05,24,03,46,9.70
2017,05,24,03,47,8.00
2017,05,24,03,48,7.70
2017,05,24,03,49,6.10
2017,05,24,03,50,7.80
2017,05,24,03,51,8.10
2017,05,24,03,52,6.90
2017,05,24,03,53,8.80
2017,05,24,03,54,6.50
2017,05,24,03,55,7.80
2017,05,24,03,56,8.10
2017,05,24,03,57,6.70
2017,05,24,03,58,7.00
2017,05,24,03,59,7.40
2017,05,24,04,00,7.70
2017,05,24,04,01,6.50
2017,05,24,04,02,5.40
2017,05,24,04,03,6.60
2017,05,24,04,04,8.00
2017,05,24,04,05,7.10
2017,05,24,04,06,8.40
2017,05,24,04,07,7.10
2017,05,24,04,08,5.10
2017,05,24,04,09,7.20
2017,05,24,04,10,5.70
2017,05,24,04,11,9.00
2017,05,24,04,12,7.50
2017,05,24,04,13,5.90
2017,05,24,04,14,6.20
2017,05,24,04,15,6.20
2017,05,24,04,16,7.00
2017,05,24,04,17,6.70
2017,05,24,04,18,9.40
2017,05,24,04,19,5.80
2017,05,24,04,20,8.00
2017,05,24,04,21,7.80
2017,05,24,04,22,6.40
2017,05,24,04,23,5.50
2017,05,24,04,24,7.50
2017,05,24,04,25,7.50
2017,05,24,04,26,6.70
2017,05,24,04,27,8.20
2017,05,24,04,28,7.80
2017,05,24,04,29,4.90
2017,05,24,04,30,5.50
2017,05,24,04,31,5.30
2017,05,24,04,32,5.40
2017,05,24,04,33,4.90
2017,05,24,04,34,8.40
2017,05,24,04,35,5.90
2017,05,24,04,36,4.70
2017,05,24,04,37,5.90
2017,05,24,04,38,5.90
2017,05,24,04,39,6.40
2017,05,24,04,40,5.30
2017,05,24,04,41,5.40
2017,05,24,04,42,7.50
2017,05,24,04,43,8.20
2017,05,24,04,44,6.20
2017,05,24,04,45,6.10
2017,05,24,04,46,7.30
2017,05,24,04,47,6.70
2017,05,24,04,48,5.60
2017,05,24,04,49,7.10
2017,05,24,04,50,8.20
2017,05,24,04,51,6.70
2017,05,24,04,52,7.20
2017,05,24,04,53,7.10
2017,05,24,04,54,6.70
2017,05,24,04,55,7.20
2017,05,24,04,56,6.90
2017,05,24,04,57,7.90
2017,05,24,04,58,6.60
2017,05,24,04,59,6.40
2017,05,24,05,00,5.20
2017,05,24,05,01,9.40
2017,05,24,05,02,9.00
2017,05,24,05,03,9.50
2017,05,24,05,04,6.90
2017,05,24,05,05,6.70
2017,05,24,05,06,6.70
2017,05,24,05,07,6.60
2017,05,24,05,08,7.20
2017,05,24,05,09,7.10
2017,05,24,05,10,8.10
2017,05,24,05,11,8.70
2017,05,24,05,12,9.70
2017,05,24,05,13,8.90
2017,05,24,05,14,8.70
2017,05,24,05,15,10.90
2017,05,24,05,16,10.10
2017,05,24,05,17,7.70
2017,05,24,05,18,7.70
2017,05,24,05,19,8.40
2017,05,24,05,20,8.70
2017,05,24,05,21,7.40
2017,05,24,05,22,8.50
2017,05,24,05,23,10.00
2017,05,24,05,24,8.20
2017,05,24,05,25,10.00
2017,05,24,05,26,7.40
2017,05,24,05,27,7.70
2017,05,24,05,28,8.50
2017,05,24,05,29,6.40
2017,05,24,05,30,7.40
2017,05,24,05,31,5.80
2017,05,24,05,32,7.30
2017,05,24,05,33,5.90
2017,05,24,05,34,6.40
2017,05,24,05,35,6.70
2017,05,24,05,36,8.10
2017,05,24,05,37,7.70
2017,05,24,05,38,10.30
2017,05,24,05,39,6.80
2017,05,24,05,40,9.00
2017,05,24,05,41,9.20
2017,05,24,05,42,7.30
2017,05,24,05,43,7.40
2017,05,24,05,44,7.60
2017,05,24,05,45,6.80
2017,05,24,05,46,8.20
2017,05,24,05,47,8.00
2017,05,24,05,48,6.30
2017,05,24,05,49,5.60
2017,05,24,05,50,5.90
2017,05,24,05,51,6.80
2017,05,24,05,52,7.00
2017,05,24,05,53,6.80
2017,05,24,05,54,5.90
2017,05,24,05,55,4.40
2017,05,24,05,56,6.10
2017,05,24,05,57,5.10
2017,05,24,05,58,5.90
2017,05,24,05,59,5.40
2017,05,24,06,00,5.70
2017,05,24,06,01,5.90
2017,05,24,06,02,5.40
2017,05,24,06,03,5.70
2017,05,24,06,04,5.80
2017,05,24,06,05,5.80
2017,05,24,06,06,6.00
2017,05,24,06,07,8.20
2017,05,24,06,08,7.50
2017,05,24,06,09,7.90
2017,05,24,06,10,10.70
2017,05,24,06,11,10.70
2017,05,24,06,12,9.70
2017,05,24,06,13,9.20
2017,05,24,06,14,11.50
2017,05,24,06,15,8.10
2017,05,24,06,16,7.30
2017,05,24,06,17,10.50
2017,05,24,06,18,13.30
2017,05,24,06,19,14.00
2017,05,24,06,20,10.00
2017,05,24,06,21,9.20
2017,05,24,06,22,10.70
2017,05,24,06,23,10.40
2017,05,24,06,24,12.10
2017,05,24,06,25,8.50
2017,05,24,06,26,10.80
2017,05,24,06,27,10.20
2017,05,24,06,28,10.60
2017,05,24,06,29,9.80
2017,05,24,06,30,5.60
2017,05,24,06,31,6.80
2017,05,24,06,32,6.70
2017,05,24,06,33,3.50
2017,05,24,06,34,6.20
2017,05,24,06,35,6.20
2017,05,24,06,36,4.50
2017,05,24,06,37,5.70
2017,05,24,06,38,4.40
2017,05,24,06,39,3.50
2017,05,24,06,40,3.20
2017,05,24,06,41,5.00
2017,05,24,06,42,5.40
2017,05,24,06,43,4.70
2017,05,24,06,44,5.70
2017,05,24,06,45,6.40
2017,05,24,06,46,6.30
2017,05,24,06,47,4.90
2017,05,24,06,48,5.40
2017,05,24,06,49,5.10
2017,05,24,06,50,7.00
2017,05,24,06,51,6.40
2017,05,24,06,52,5.80
2017,05,24,06,53,7.20
2017,05,24,06,54,5.10
2017,05,24,06,55,7.40
2017,05,24,06,56,5.20
2017,05,24,06,57,4.50
2017,05,24,06,58,6.40
2017,05,24,06,59,4.80
2017,05,24,07,00,6.70
2017,05,24,07,01,6.50
2017,05,24,07,02,4.40
2017,05,24,07,03,4.10
2017,05,24,07,04,5.40
2017,05,24,07,05,3.50
2017,05,24,07,06,1.40
2017,05,24,07,07,3.20
2017,05,24,07,08,4.40
2017,05,24,07,09,5.70
2017,05,24,07,10,7.00
2017,05,24,07,11,6.40
2017,05,24,07,12,4.70
2017,05,24,07,13,5.00
2017,05,24,07,14,5.90
2017,05,24,07,15,6.10
2017,05,24,07,16,7.10
2017,05,24,07,17,7.40
2017,05,24,07,18,5.10
2017,05,24,07,19,4.80
2017,05,24,07,20,6.30
2017,05,24,07,21,6.70
2017,05,24,07,22,4.50
2017,05,24,07,23,4.80
2017,05,24,07,24,7.00
2017,05,24,07,25,6.90
2017,05,24,07,26,7.40
2017,05,24,07,27,5.00
2017,05,24,07,28,5.60
2017,05,24,07,29,10.30
2017,05,24,07,30,8.30
2017,05,24,07,31,6.90
2017,05,24,07,32,5.00
2017,05,24,07,33,4.60
2017,05,24,07,34,4.70
2017,05,24,07,35,4.60
2017,05,24,07,36,5.80
2017,05,24,07,37,4.80
2017,05,24,07,38,4.50
2017,05,24,07,39,5.50
2017,05,24,07,40,3.10
2017,05,24,07,41,2.70
2017,05,24,07,42,3.60
2017,05,24,07,43,4.40
2017,05,24,07,44,5.70
2017,05,24,07,45,4.50
2017,05,24,07,46,5.80
2017,05,24,07,47,8.00
2017,05,24,07,48,9.30
2017,05,24,07,49,11.60
2017,05,24,07,50,4.00
2017,05,24,07,51,5.10
2017,05,24,07,52,4.40
2017,05,24,07,53,8.80
2017,05,24,07,54,8.30
2017,05,24,07,55,6.20
2017,05,24,07,56,6.80
2017,05,24,07,57,7.80
2017,05,24,07,58,11.90
2017,05,24,07,59,12.00
2017,05,24,08,00,7.30
2017,05,24,08,01,8.00
2017,05,24,08,02,5.90
2017,05,24,08,03,10.00
2017,05,24,08,04,8.70
2017,05,24,08,05,8.20
2017,05,24,08,06,9.40
2017,05,24,08,07,7.60
2017,05,24,08,08,8.10
2017,05,24,08,09,9.30
2017,05,24,08,10,9.30
2017,05,24,08,11,9.20
2017,05,24,08,12,8.70
2017,05,24,08,13,15.40
2017,05,24,08,14,9.40
2017,05,24,08,15,10.00
2017,05,24,08,16,13.80
2017,05,24,08,17,10.50
2017,05,24,08,18,9.90
2017,05,24,08,19,9.10
2017,05,24,08,20,6.80
2017,05,24,08,21,11.30
2017,05,24,08,22,11.60
2017,05,24,08,23,13.50
2017,05,24,08,24,10.90
2017,05,24,08,25,12.60
2017,05,24,08,26,10.90
2017,05,24,08,27,6.20
2017,05,24,08,28,10.40
2017,05,24,08,29,10.80
2017,05,24,08,30,11.00
2017,05,24,08,31,14.10
2017,05,24,08,32,9.20
2017,05,24,08,33,10.90
2017,05,24,08,34,8.30
2017,05,24,08,35,10.00
2017,05,24,08,36,10.70
2017,05,24,08,37,12.80
2017,05,24,08,38,10.50
2017,05,24,08,39,13.70
2017,05,24,08,40,14.30
2017,05,24,08,41,12.20
2017,05,24,08,42,14.10
2017,05,24,08,43,14.90
2017,05,24,08,44,13.10
2017,05,24,08,45,13.10
2017,05,24,08,46,11.80
2017,05,24,08,47,13.70
2017,05,24,08,48,13.50
2017,05,24,08,49,11.00
2017,05,24,08,50,12.70
2017,05,24,08,51,14.60
2017,05,24,08,52,16.10
2017,05,24,08,53,13.70
2017,05,24,08,54,13.20
2017,05,24,08,55,16.20
2017,05,24,08,56,18.50
2017,05,24,08,57,14.00
2017,05,24,08,58,12.90
2017,05,24,08,59,9.50
2017,05,24,09,00,10.50
2017,05,24,09,01,15.70
2017,05,24,09,02,9.00
2017,05,24,09,03,11.90
2017,05,24,09,04,9.50
2017,05,24,09,05,8.20
2017,05,24,09,06,8.60
2017,05,24,09,07,10.40
2017,05,24,09,08,8.10
2017,05,24,09,09,6.00
2017,05,24,09,10,7.60
2017,05,24,09,11,6.90
2017,05,24,09,12,8.60
2017,05,24,09,13,12.30
2017,05,24,09,14,9.00
2017,05,24,09,15,13.80
2017,05,24,09,16,9.90
2017,05,24,09,17,7.80
2017,05,24,09,18,8.30
2017,05,24,09,19,9.40
2017,05,24,09,20,12.20
2017,05,24,09,21,10.00
2017,05,24,09,22,9.20
2017,05,24,09,23,8.60
2017,05,24,09,24,12.60
2017,05,24,09,25,9.70
2017,05,24,09,26,8.40
2017,05,24,09,27,10.80
2017,05,24,09,28,8.10
2017,05,24,09,29,8.10
2017,05,24,09,30,10.10
2017,05,24,09,31,8.70
2017,05,24,09,32,15.00
2017,05,24,09,33,14.60
2017,05,24,09,34,12.30
2017,05,24,09,35,18.00
2017,05,24,09,36,9.40
2017,05,24,09,37,11.70
2017,05,24,09,38,8.60
2017,05,24,09,39,8.60
2017,05,24,09,40,12.00
2017,05,24,09,41,7.80
2017,05,24,09,42,8.70
2017,05,24,09,43,13.00
2017,05,24,09,44,8.90
2017,05,24,09,45,12.40
2017,05,24,09,46,13.20
2017,05,24,09,47,11.30
2017,05,24,09,48,10.30
2017,05,24,09,49,11.30
2017,05,24,09,50,14.60
2017,05,24,09,51,13.40
2017,05,24,09,52,9.00
2017,05,24,09,53,8.80
2017,05,24,09,54,14.20
2017,05,24,09,55,10.80
2017,05,24,09,56,11.30
2017,05,24,09,57,12.00
2017,05,24,09,58,13.00
2017,05,24,09,59,16.50
2017,05,24,10,00,11.00
2017,05,24,10,01,16.20
2017,05,24,10,02,16.20
2017,05,24,10,03,11.80
2017,05,24,10,04,15.20
2017,05,24,10,05,12.90
2017,05,24,10,06,11.30
2017,05,24,10,07,14.50
2017,05,24,10,08,15.90
2017,05,24,10,09,14.30
2017,05,24,10,10,19.60
2017,05,24,10,11,16.90
2017,05,24,10,12,16.40
2017,05,24,10,13,16.30
2017,05,24,10,14,14.90
2017,05,24,10,15,13.90
2017,05,24,10,16,17.30
2017,05,24,10,17,13.80
2017,05,24,10,18,19.60
2017,05,24,10,19,15.20
2017,05,24,10,20,15.90
2017,05,24,10,21,15.60
2017,05,24,10,22,21.20
2017,05,24,10,23,16.50
2017,05,24,10,24,15.50
2017,05,24,10,25,16.60
2017,05,24,10,26,15.50
2017,05,24,10,27,16.40
2017,05,24,10,28,18.60
2017,05,24,10,29,15.20
2017,05,24,10,30,16.30
2017,05,24,10,31,14.30
2017,05,24,10,32,15.70
2017,05,24,10,33,14.10
2017,05,24,10,34,16.60
2017,05,24,10,35,17.40
2017,05,24,10,36,17.70
2017,05,24,10,37,14.90
2017,05,24,10,38,13.40
2017,05,24,10,39,16.20
2017,05,24,10,40,14.90
2017,05,24,10,41,11.90
2017,05,24,10,42,12.70
2017,05,24,10,43,14.00
2017,05,24,10,44,15.10
2017,05,24,10,45,14.00
2017,05,24,10,46,15.70
2017,05,24,10,47,12.60
2017,05,24,10,48,9.20
2017,05,24,10,49,8.50
2017,05,24,10,50,18.40
2017,05,24,10,51,18.50
2017,05,24,10,52,18.60
2017,05,24,10,53,14.60
2017,05,24,10,54,16.80
2017,05,24,10,55,17.10
2017,05,24,10,56,15.10
2017,05,24,10,57,14.30
2017,05,24,10,58,15.40
2017,05,24,10,59,21.90
2017,05,24,11,00,13.40
2017,05,24,11,01,16.30
2017,05,24,11,02,17.60
2017,05,24,11,03,18.50
2017,05,24,11,04,19.00
2017,05,24,11,05,23.60
2017,05,24,11,06,18.40
2017,05,24,11,07,19.20
2017,05,24,11,08,20.60
2017,05,24,11,09,18.00
2017,05,24,11,10,14.90
2017,05,24,11,11,19.00
2017,05,24,11,12,13.20
2017,05,24,11,13,18.80
2017,05,24,11,14,21.20
2017,05,24,11,15,15.60
2017,05,24,11,16,17.40
2017,05,24,11,17,18.90
2017,05,24,11,18,19.30
2017,05,24,11,19,25.10
2017,05,24,11,20,19.50
2017,05,24,11,21,17.40
2017,05,24,11,22,18.60
2017,05,24,11,23,22.70
2017,05,24,11,24,23.70
2017,05,24,11,25,21.40
2017,05,24,11,26,15.80
2017,05,24,11,27,21.10
2017,05,24,11,28,16.40
2017,05,24,11,29,22.50
2017,05,24,11,30,19.50
2017,05,24,11,31,16.20
2017,05,24,11,32,22.20
2017,05,24,11,33,17.20
2017,05,24,11,34,20.20
2017,05,24,11,35,15.10
2017,05,24,11,36,23.60
2017,05,24,11,37,19.40
2017,05,24,11,38,19.20
2017,05,24,11,39,21.20
2017,05,24,11,40,21.20
2017,05,24,11,41,18.50
2017,05,24,11,42,22.50
2017,05,24,11,43,23.00
2017,05,24,11,44,24.70
2017,05,24,11,45,18.90
2017,05,24,11,46,21.50
2017,05,24,11,47,19.20
2017,05,24,11,48,22.90
2017,05,24,11,49,13.00
2017,05,24,11,50,21.50
2017,05,24,11,51,23.00
2017,05,24,11,52,19.80
2017,05,24,11,53,19.50
2017,05,24,11,54,22.20
2017,05,24,11,55,15.60
2017,05,24,11,56,17.70
2017,05,24,11,57,22.70
2017,05,24,11,58,21.10
2017,05,24,11,59,25.00
2017,05,24,12,00,17.50
2017,05,24,12,01,24.50
2017,05,24,12,02,19.10
2017,05,24,12,03,22.70
2017,05,24,12,04,14.40
2017,05,24,12,05,15.60
2017,05,24,12,06,17.20
2017,05,24,12,07,16.10
2017,05,24,12,08,14.90
2017,05,24,12,09,20.50
2017,05,24,12,10,14.50
2017,05,24,12,11,18.60
2017,05,24,12,12,18.30
2017,05,24,12,13,15.10
2017,05,24,12,14,20.40
2017,05,24,12,15,12.20
2017,05,24,12,16,19.20
2017,05,24,12,17,17.70
2017,05,24,12,18,14.90
2017,05,24,12,19,22.80
2017,05,24,12,20,26.40
2017,05,24,12,21,25.00
2017,05,24,12,22,20.90
2017,05,24,12,23,19.40
2017,05,24,12,24,23.10
2017,05,24,12,25,21.20
2017,05,24,12,26,18.90
2017,05,24,12,27,22.60
2017,05,24,12,28,25.70
2017,05,24,12,29,26.50
2017,05,24,12,30,23.40
2017,05,24,12,31,20.60
2017,05,24,12,32,14.60
2017,05,24,12,33,17.30
2017,05,24,12,34,16.10
2017,05,24,12,35,11.40
2017,05,24,12,36,15.60
2017,05,24,12,37,18.00
2017,05,24,12,38,14.90
2017,05,24,12,39,13.50
2017,05,24,12,40,17.90
2017,05,24,12,41,19.20
2017,05,24,12,42,20.40
2017,05,24,12,43,13.10
2017,05,24,12,44,12.30
2017,05,24,12,45,22.50
2017,05,24,12,46,25.70
2017,05,24,12,47,17.30
2017,05,24,12,48,19.50
2017,05,24,12,49,19.70
2017,05,24,12,50,25.60
2017,05,24,12,51,19.40
2017,05,24,12,52,18.50
2017,05,24,12,53,18.40
2017,05,24,12,54,26.10
2017,05,24,12,55,20.70
2017,05,24,12,56,24.90
2017,05,24,12,57,19.10
2017,05,24,12,58,24.60
2017,05,24,12,59,21.90
2017,05,24,13,00,18.60
2017,05,24,13,01,20.90
2017,05,24,13,02,23.60
2017,05,24,13,03,18.90
2017,05,24,13,04,24.60
2017,05,24,13,05,20.20
2017,05,24,13,06,18.60
2017,05,24,13,07,12.10
2017,05,24,13,08,25.70
2017,05,24,13,09,22.10
2017,05,24,13,10,17.60
2017,05,24,13,11,21.30
2017,05,24,13,12,20.10
2017,05,24,13,13,16.60
2017,05,24,13,14,23.80
2017,05,24,13,15,21.60
2017,05,24,13,16,15.50
2017,05,24,13,17,12.20
2017,05,24,13,18,16.60
2017,05,24,13,19,16.30
2017,05,24,13,20,13.50
2017,05,24,13,21,15.70
2017,05,24,13,22,17.50
2017,05,24,13,23,16.90
2017,05,24,13,24,23.30
2017,05,24,13,25,24.90
2017,05,24,13,26,10.90
2017,05,24,13,27,19.80
2017,05,24,13,28,23.40
2017,05,24,13,29,20.00
2017,05,24,13,30,29.30
2017,05,24,13,31,17.70
2017,05,24,13,32,13.70
2017,05,24,13,33,19.20
2017,05,24,13,34,18.90
2017,05,24,13,35,18.20
2017,05,24,13,36,14.50
2017,05,24,13,37,10.30
2017,05,24,13,38,17.70
2017,05,24,13,39,17.90
2017,05,24,13,40,21.00
2017,05,24,13,41,12.60
2017,05,24,13,42,10.70
2017,05,24,13,43,15.90
2017,05,24,13,44,25.20
2017,05,24,13,45,21.60
2017,05,24,13,46,16.70
2017,05,24,13,47,24.00
2017,05,24,13,48,26.70
2017,05,24,13,49,17.70
2017,05,24,13,50,19.00
2017,05,24,13,51,25.60
2017,05,24,13,52,12.10
2017,05,24,13,53,14.50
2017,05,24,13,54,18.10
2017,05,24,13,55,12.60
2017,05,24,13,56,16.90
2017,05,24,13,57,17.10
2017,05,24,13,58,19.50
2017,05,24,13,59,17.60
2017,05,24,14,00,16.60
2017,05,24,14,01,11.60
2017,05,24,14,02,20.40
2017,05,24,14,03,16.80
2017,05,24,14,04,17.80
2017,05,24,14,05,15.20
2017,05,24,14,06,19.20
2017,05,24,14,07,19.20
2017,05,24,14,08,21.50
2017,05,24,14,09,15.20
2017,05,24,14,10,17.90
2017,05,24,14,11,19.00
2017,05,24,14,12,15.10
2017,05,24,14,13,18.20
2017,05,24,14,14,16.00
2017,05,24,14,15,16.90
2017,05,24,14,16,13.90
2017,05,24,14,17,11.60
2017,05,24,14,18,21.60
2017,05,24,14,19,13.60
2017,05,24,14,20,16.20
2017,05,24,14,21,19.60
2017,05,24,14,22,11.90
2017,05,24,14,23,16.30
2017,05,24,14,24,21.00
2017,05,24,14,25,15.40
2017,05,24,14,26,18.30
2017,05,24,14,27,18.10
2017,05,24,14,28,12.00
2017,05,24,14,29,12.80
2017,05,24,14,30,12.30
2017,05,24,14,31,14.90
2017,05,24,14,32,15.90
2017,05,24,14,33,15.60
2017,05,24,14,34,18.40
2017,05,24,14,35,20.40
2017,05,24,14,36,19.20
2017,05,24,14,37,18.70
2017,05,24,14,38,18.30
2017,05,24,14,39,22.30
2017,05,24,14,40,21.00
2017,05,24,14,41,20.80
2017,05,24,14,42,19.70
2017,05,24,14,43,13.80
2017,05,24,14,44,20.80
2017,05,24,14,45,18.30
2017,05,24,14,46,20.30
2017,05,24,14,47,13.80
2017,05,24,14,48,14.90
2017,05,24,14,49,20.30
2017,05,24,14,50,16.10
2017,05,24,14,51,23.60
2017,05,24,14,52,13.80
2017,05,24,14,53,19.50
2017,05,24,14,54,21.00
2017,05,24,14,55,15.40
2017,05,24,14,56,17.60
2017,05,24,14,57,18.40
2017,05,24,14,58,17.30
2017,05,24,14,59,18.40
2017,05,24,15,00,20.70
2017,05,24,15,01,19.40
2017,05,24,15,02,24.30
2017,05,24,15,03,21.70
2017,05,24,15,04,22.80
2017,05,24,15,05,20.60
2017,05,24,15,06,20.10
2017,05,24,15,07,19.50
2017,05,24,15,08,16.80
2017,05,24,15,09,18.50
2017,05,24,15,10,25.70
2017,05,24,15,11,16.40
2017,05,24,15,12,23.50
2017,05,24,15,13,22.60
2017,05,24,15,14,19.50
2017,05,24,15,15,21.00
2017,05,24,15,16,17.10
2017,05,24,15,17,17.20
2017,05,24,15,18,12.50
2017,05,24,15,19,14.20
2017,05,24,15,20,16.20
2017,05,24,15,21,20.20
2017,05,24,15,22,17.30
2017,05,24,15,23,14.60
2017,05,24,15,24,17.20
2017,05,24,15,25,18.50
2017,05,24,15,26,12.70
2017,05,24,15,27,16.80
2017,05,24,15,28,18.50
2017,05,24,15,29,22.90
2017,05,24,15,30,17.00
2017,05,24,15,31,20.00
2017,05,24,15,32,19.80
2017,05,24,15,33,13.70
2017,05,24,15,34,17.80
2017,05,24,15,35,17.10
2017,05,24,15,36,12.80
2017,05,24,15,37,12.60
2017,05,24,15,38,12.00
2017,05,24,15,39,13.80
2017,05,24,15,40,12.40
2017,05,24,15,41,13.60
2017,05,24,15,42,19.00
2017,05,24,15,43,15.20
2017,05,24,15,44,21.90
2017,05,24,15,45,15.90
2017,05,24,15,46,17.60
2017,05,24,15,47,16.00
2017,05,24,15,48,10.90
2017,05,24,15,49,18.40
2017,05,24,15,50,13.60
2017,05,24,15,51,15.40
2017,05,24,15,52,12.70
2017,05,24,15,53,8.20
2017,05,24,15,54,15.40
2017,05,24,15,55,14.30
2017,05,24,15,56,13.60
2017,05,24,15,57,12.80
2017,05,24,15,58,16.10
2017,05,24,15,59,13.70
2017,05,24,16,00,10.90
2017,05,24,16,01,17.10
2017,05,24,16,02,10.50
2017,05,24,16,03,10.40
2017,05,24,16,04,15.10
2017,05,24,16,05,10.60
2017,05,24,16,06,13.00
2017,05,24,16,07,14.00
2017,05,24,16,08,11.00
2017,05,24,16,09,11.00
2017,05,24,16,10,12.60
2017,05,24,16,11,8.40
2017,05,24,16,12,13.60
2017,05,24,16,13,13.10
2017,05,24,16,14,14.30
2017,05,24,16,15,16.50
2017,05,24,16,16,19.10
2017,05,24,16,17,18.70
2017,05,24,16,18,15.70
2017,05,24,16,19,13.50
2017,05,24,16,20,19.50
2017,05,24,16,21,14.90
2017,05,24,16,22,13.20
2017,05,24,16,23,17.10
2017,05,24,16,24,15.80
2017,05,24,16,25,17.60
2017,05,24,16,26,16.50
2017,05,24,16,27,11.40
2017,05,24,16,28,10.30
2017,05,24,16,29,14.60
2017,05,24,16,30,13.80
2017,05,24,16,31,14.40
2017,05,24,16,32,18.20
2017,05,24,16,33,14.60
2017,05,24,16,34,16.20
2017,05,24,16,35,14.30
2017,05,24,16,36,13.00
2017,05,24,16,37,13.90
2017,05,24,16,38,14.30
2017,05,24,16,39,17.60
2017,05,24,16,40,14.90
2017,05,24,16,41,15.60
2017,05,24,16,42,18.70
2017,05,24,16,43,16.20
2017,05,24,16,44,22.80
2017,05,24,16,45,16.40
2017,05,24,16,46,13.30
2017,05,24,16,47,15.10
2017,05,24,16,48,10.20
2017,05,24,16,49,10.70
2017,05,24,16,50,8.70
2017,05,24,16,51,6.70
2017,05,24,16,52,10.20
2017,05,24,16,53,7.70
2017,05,24,16,54,7.10
2017,05,24,16,55,9.20
2017,05,24,16,56,8.70
2017,05,24,16,57,11.10
2017,05,24,16,58,10.00
2017,05,24,16,59,10.00
2017,05,24,17,00,6.00
2017,05,24,17,01,8.00
2017,05,24,17,02,9.30
2017,05,24,17,03,11.70
2017,05,24,17,04,8.70
2017,05,24,17,05,11.40
2017,05,24,17,06,8.70
2017,05,24,17,07,12.00
2017,05,24,17,08,13.90
2017,05,24,17,09,12.90
2017,05,24,17,10,12.70
2017,05,24,17,11,10.80
2017,05,24,17,12,12.40
2017,05,24,17,13,10.60
2017,05,24,17,14,13.90
2017,05,24,17,15,10.10
2017,05,24,17,16,12.40
2017,05,24,17,17,13.90
2017,05,24,17,18,11.70
2017,05,24,17,19,11.40
2017,05,24,17,20,7.20
2017,05,24,17,21,7.70
2017,05,24,17,22,12.90
2017,05,24,17,23,11.40
2017,05,24,17,24,12.00
2017,05,24,17,25,9.20
2017,05,24,17,26,14.20
2017,05,24,17,27,8.20
2017,05,24,17,28,10.00
2017,05,24,17,29,6.30
2017,05,24,17,30,12.00
2017,05,24,17,31,13.50
2017,05,24,17,32,9.70
2017,05,24,17,33,9.40
2017,05,24,17,34,8.30
2017,05,24,17,35,8.40
2017,05,24,17,36,8.60
2017,05,24,17,37,7.90
2017,05,24,17,38,13.90
2017,05,24,17,39,11.40